[[{"header":{"parameterUnit":"m.s-1","parameterCategory":1,"la1":30.2991,"la2":30.254,"lo1":-89.0895,"lo2":-89.0444,"dy":0.0017,"dx":0.0017,"nx":28,"ny":28,"refTime":"2025-06-20T21:00:00:Z","depth":0,"parameterNumber":2,"parameterNumberName":"U-component_of_WINDS"},"data":[0,0,0,0,0,0,0,0,0,0,0,0,0,0,0,0,0,0,0,0,0,0,0,0,0,0,0,0,0,0,0,0,0,0,0,0,0,0,0,0,0,0,0,0,0,0,0,0,0,0,0,0,0,0,0,0,0,0,1.2034,1.2035,0,1.2141,1.2142,1.2143,1.2125,1.2124,1.2122,1.212,1.2237,1.2242,1.2247,0,0,0,0,0,0,0,0,0,0,0,0,0,1.1818,1.1822,1.2033,1.2035,1.2036,1.214,1.2142,1.2143,1.2126,1.2123,1.2121,1.2119,1.2236,1.2241,1.2247,0,0,0,0,0,0,0,0,0,0,0,0,0,1.1917,1.1823,1.2033,1.204,1.2041,1.214,1.2142,1.2144,1.2126,1.2123,1.2121,1.2118,1.2234,1.2241,1.2248,1.235,0,0,1.227,1.2274,0,0,0,0,0,0,0,0,1.1911,1.1925,1.2037,1.2039,1.2041,1.2117,1.2109,1.2213,1.2127,1.2094,1.212,1.2117,1.22,1.221,1.2236,1.2355,1.236,1.2271,1.2276,1.2279,1.2281,0,0,0,0,0,0,0,1.1905,1.192,1.2076,1.2039,1.2042,1.2039,1.205,1.2129,1.2162,1.2097,1.2096,1.2108,1.2201,1.2229,1.2239,1.2362,1.2271,1.2277,1.2282,1.2285,1.2566,1.2569,0,0,0,0,0,0,1.1895,1.1915,1.2073,1.2079,1.1968,1.2045,1.2057,1.2096,1.2161,1.2168,1.2111,1.2107,1.2218,1.2231,1.2243,1.2364,1.2279,1.2285,1.229,1.2563,1.2567,1.257,0,0,0,0,0,0,1.189,1.1909,1.2068,1.1997,1.2017,1.2051,1.2095,1.2099,1.2128,1.2171,1.2178,1.2134,1.2217,1.2233,1.2322,1.2368,1.2289,1.2295,1.2559,1.2564,1.2568,1.2608,0,0,0,0,0,0,1.1884,1.1908,1.1946,1.1998,1.202,1.2144,1.2098,1.2103,1.214,1.2136,1.2195,1.2202,1.2216,1.2311,1.2329,1.2377,1.2301,1.2555,1.2561,1.2567,1.2603,1.2614,1.2623,0,0,0,0,0,1.1877,1.1956,1.1948,1.1967,1.2069,1.2147,1.2161,1.2173,1.2143,1.2182,1.2209,1.22,1.236,1.232,1.2341,1.2391,1.2552,1.256,1.2566,1.2599,1.2612,1.2623,0,0,0,0,0,0,1.1912,1.1963,1.1955,1.2052,1.2095,1.2144,1.2194,1.2187,1.2241,1.2236,1.2251,1.2264,1.2354,1.2382,1.2337,1.2491,1.2452,1.2463,1.247,1.2483,1.2492,1.2484,1.2307,0,0,0,0,0,1.1931,1.1988,1.203,1.2112,1.2133,1.216,1.2195,1.2199,1.2246,1.2265,1.2299,1.2345,1.2405,1.2446,1.2504,1.2606,1.2618,1.2651,1.266,1.2668,1.2678,1.2732,1.2746,1.2593,1.2593,1.2592,0,0,1.1971,1.2006,1.2042,1.212,1.2154,1.2214,1.2176,1.2242,1.2287,1.2276,1.236,1.2387,1.244,1.2535,1.2579,1.2561,1.2723,1.2677,1.2683,1.2689,1.2741,1.2755,1.2768,1.2597,1.2596,1.2596,0,0,1.2075,1.2107,1.2177,1.2211,1.2261,1.2277,1.2294,1.2343,1.2358,1.2443,1.2435,1.2489,1.2594,1.2631,1.2663,1.2776,1.2768,1.2795,1.2847,1.2899,1.2911,1.2922,1.2961,1.2975,1.2804,1.2804,1.2804,0,1.212,1.2208,1.2216,1.2281,1.2315,1.2303,1.2375,1.2408,1.2475,1.25,1.2477,1.2605,1.264,1.2743,1.2769,1.2797,1.2816,1.2789,1.2908,1.2919,1.2929,1.2967,1.2982,1.2807,1.2807,1.2806,1.2806,0,1.226,1.2321,1.2372,1.2433,1.2473,1.2542,1.256,1.2599,1.26,1.2618,1.2703,1.2744,1.2809,1.2834,1.2837,1.2936,1.2923,1.2904,1.2866,1.2947,1.2982,1.2996,1.2811,1.281,1.2809,1.2808,0,0,1.2393,1.2453,1.2472,1.2498,1.255,1.2598,1.2665,1.2725,1.2758,1.2804,1.2861,1.2947,1.2928,1.2965,1.2972,1.3018,1.3102,1.2993,1.2995,1.3011,1.3212,1.3225,1.3241,1.3096,1.3099,1.3101,1.3207,0,1.2501,1.2616,1.2623,1.2729,1.2784,1.2772,1.283,1.2869,1.2887,1.2938,1.2959,1.3019,1.2991,1.3012,1.3057,1.3082,1.3142,1.3075,1.315,1.3152,1.3137,1.326,1.3276,1.3374,1.3221,1.3223,1.3225,0,1.2643,1.2689,1.2799,1.2839,1.2863,1.2915,1.2968,1.3017,1.306,1.307,1.3108,1.3107,1.3176,1.3134,1.3229,1.3182,1.3213,1.323,1.3234,1.3242,1.3194,1.3272,1.3405,1.342,1.3247,1.3245,1.3244,0,1.2727,1.2817,1.2893,1.2916,1.2966,1.3002,1.3025,1.3065,1.3099,1.3146,1.3169,1.3225,1.3256,1.3299,1.3313,1.3281,1.3407,1.3366,1.3417,1.3417,1.3446,1.3444,1.3586,1.3465,1.3465,1.3465,1.3465,0,1.2847,1.2915,1.2931,1.2978,1.3053,1.306,1.3134,1.3155,1.3189,1.3241,1.3234,1.3283,1.3298,1.335,1.3361,1.3437,1.3452,1.3462,1.3464,1.3463,1.3461,1.3484,1.3477,1.3469,1.3468,1.3467,1.3467,0,1.2955,1.2968,1.3051,1.3089,1.31,1.3153,1.3187,1.3232,1.3247,1.3312,1.3328,1.3353,1.3413,1.343,1.3504,1.3511,1.3599,1.3596,1.3584,1.3584,1.3635,1.3629,1.3797,1.3819,1.3683,1.3684,1.3686,0,1.3031,1.3082,1.3124,1.3156,1.3179,1.3232,1.3265,1.3273,1.3309,1.3359,1.3398,1.3456,1.3503,1.3599,1.3625,1.368,1.3677,1.3732,1.3686,1.3682,1.3678,1.3674,1.3679,1.3741,1.3743,1.3744,1.3745,0,1.3164,1.3166,1.3214,1.3263,1.3302,1.3342,1.338,1.3408,1.342,1.3461,1.352,1.3556,1.3627,1.3685,1.374,1.3764,1.3757,1.3758,1.3773,1.3773,1.3763,1.3768,1.3608,1.3755,1.3754,1.3753,1.3753,1.3752,1.3258,1.3301,1.3336,1.3388,1.3417,1.3451,1.3495,1.3513,1.3562,1.3619,1.3621,1.3684,1.3723,1.3795,1.3823,1.3873,1.3857,1.3879,1.3885,1.389,1.3893,1.3754,1.3883,1.3883,1.3883,1.3883,1.3882,0,1.3389,1.341,1.3457,1.3509,1.355,1.3535,1.3575,1.3611,1.3666,1.3702,1.3746,1.3813,1.3868,1.3896,1.395,1.3985,1.3983,1.3999,1.3997,1.4002,1.3905,1.3886,1.4,1.4,1.4,1.3999,1.3999,1.3999,1.3463,1.3534,1.3541,1.3626,1.3647,1.3707,1.3731,1.3763,1.3791,1.3864,1.3908,1.3925,1.3957,1.4013,1.4062,1.4069,1.409,1.4108,1.4113,1.4022,1.401,1.3998,1.3981,1.4112,1.4112,1.4206,1.4207,1.4207]},{"header":{"parameterUnit":"m.s-1","parameterCategory":1,"la1":30.2991,"la2":30.254,"lo1":-89.0895,"lo2":-89.0444,"dy":0.0017,"dx":0.0017,"nx":28,"ny":28,"refTime":"2025-06-20T21:00:00:Z","depth":0,"parameterNumber":3,"parameterNumberName":"V-component_of_WINDS"},"data":[0,0,0,0,0,0,0,0,0,0,0,0,0,0,0,0,0,0,0,0,0,0,0,0,0,0,0,0,0,0,0,0,0,0,0,0,0,0,0,0,0,0,0,0,0,0,0,0,0,0,0,0,0,0,0,0,0,0,3.546,3.5459,0,3.5344,3.5343,3.5342,3.5188,3.5185,3.5182,3.518,3.5059,3.5059,3.5058,0,0,0,0,0,0,0,0,0,0,0,0,0,3.5547,3.5546,3.546,3.5459,3.5458,3.5345,3.5343,3.5341,3.5188,3.5185,3.5182,3.5179,3.506,3.5059,3.5058,0,0,0,0,0,0,0,0,0,0,0,0,0,3.5478,3.5546,3.5461,3.5367,3.5358,3.5345,3.5343,3.5341,3.5189,3.5185,3.5181,3.5177,3.506,3.5059,3.5057,3.5126,0,0,3.5054,3.5053,0,0,0,0,0,0,0,0,3.5482,3.5475,3.5383,3.5374,3.5363,3.5277,3.5329,3.5269,3.519,3.5253,3.518,3.5176,3.5135,3.5127,3.5113,3.512,3.5115,3.5054,3.5053,3.5052,3.5052,0,0,0,0,0,0,0,3.5487,3.5479,3.5414,3.5381,3.537,3.5331,3.5317,3.5317,3.5216,3.5247,3.5236,3.5224,3.5128,3.5115,3.511,3.5113,3.5054,3.5052,3.5052,3.5051,3.5169,3.5173,0,0,0,0,0,0,3.5506,3.5484,3.5418,3.5411,3.5415,3.5332,3.5317,3.5308,3.5216,3.5198,3.5227,3.5217,3.5119,3.5111,3.5105,3.5177,3.5052,3.5051,3.505,3.5165,3.517,3.5174,0,0,0,0,0,0,3.5509,3.5502,3.5423,3.5445,3.5431,3.5335,3.5327,3.5308,3.5294,3.5201,3.5182,3.5232,3.5116,3.5106,3.5122,3.5171,3.505,3.5049,3.5161,3.5167,3.5172,3.5325,0,0,0,0,0,0,3.5512,3.5504,3.5529,3.5446,3.5431,3.5443,3.533,3.5308,3.5293,3.5278,3.5201,3.5184,3.5112,3.5124,3.5121,3.5167,3.5048,3.5156,3.5163,3.517,3.5315,3.5335,3.5353,0,0,0,0,0,3.5516,3.5577,3.5531,3.5524,3.5461,3.5446,3.5437,3.5353,3.5297,3.5322,3.5262,3.5187,3.5167,3.5127,3.5121,3.5169,3.5152,3.5161,3.517,3.5307,3.5331,3.5352,0,0,0,0,0,0,3.5667,3.5564,3.5513,3.5549,3.5508,3.542,3.5448,3.5382,3.5355,3.5343,3.524,3.5224,3.5251,3.5211,3.5169,3.5229,3.5148,3.5156,3.5254,3.5277,3.5296,3.5304,3.5047,0,0,0,0,0,3.5705,3.5702,3.5612,3.5653,3.5635,3.5546,3.5536,3.5475,3.5428,3.5409,3.535,3.5307,3.529,3.5282,3.5261,3.5309,3.5289,3.5339,3.5357,3.5373,3.5381,3.5402,3.5422,3.5203,3.5203,3.5203,0,0,3.5783,3.5726,3.573,3.5682,3.5642,3.5641,3.5532,3.5535,3.5532,3.5409,3.542,3.5376,3.532,3.5352,3.5362,3.5319,3.5437,3.5385,3.5398,3.5397,3.5413,3.5434,3.5452,3.5209,3.5208,3.5207,0,0,3.5923,3.5881,3.5909,3.5873,3.5815,3.5755,3.5763,3.5685,3.5651,3.566,3.5568,3.5563,3.5537,3.5501,3.5479,3.5607,3.5536,3.5604,3.5701,3.5723,3.574,3.5755,3.5799,3.5816,3.5612,3.5612,3.5613,0,3.6027,3.6021,3.5932,3.5941,3.5922,3.5812,3.5839,3.5808,3.5747,3.5735,3.5688,3.5653,3.5608,3.5629,3.566,3.5647,3.5651,3.5611,3.5745,3.5759,3.5771,3.5812,3.5829,3.5621,3.562,3.5619,3.5618,0,3.6151,3.6149,3.6179,3.6123,3.6107,3.6126,3.6039,3.6034,3.5975,3.592,3.593,3.5873,3.5838,3.5839,3.5781,3.5852,3.5826,3.5764,3.568,3.5802,3.5839,3.5854,3.5633,3.563,3.5627,3.5625,0,0,3.6382,3.6277,3.629,3.6263,3.6191,3.6187,3.6201,3.6168,3.6165,3.6127,3.6134,3.6116,3.6057,3.6033,3.597,3.5989,3.6092,3.5923,3.592,3.5955,3.6164,3.6211,3.6231,3.6046,3.6048,3.605,3.6168,0,3.6507,3.6524,3.6445,3.6483,3.6479,3.6374,3.6386,3.6343,3.6293,3.6281,3.6225,3.6213,3.6137,3.6122,3.6136,3.6077,3.6132,3.6067,3.605,3.6051,3.6066,3.625,3.6299,3.6413,3.6182,3.6185,3.6186,0,3.6656,3.6626,3.6664,3.659,3.6585,3.6597,3.656,3.6552,3.6501,3.6462,3.6436,3.6364,3.6371,3.6292,3.6299,3.6257,3.6245,3.6215,3.6217,3.6211,3.6125,3.6247,3.6447,3.6464,3.6208,3.6207,3.6205,0,3.6819,3.6788,3.6806,3.6787,3.6702,3.6712,3.6677,3.6622,3.6608,3.6576,3.6565,3.6534,3.6517,3.6495,3.6416,3.6366,3.6432,3.6347,3.6399,3.6401,3.6416,3.6415,3.6616,3.6412,3.6412,3.6411,3.6411,0,3.6966,3.6992,3.6878,3.6889,3.6916,3.6825,3.6853,3.6808,3.676,3.676,3.6668,3.6669,3.6566,3.6556,3.6494,3.6509,3.6502,3.647,3.6453,3.6477,3.6481,3.6467,3.6457,3.6416,3.6415,3.6414,3.6413,0,3.7151,3.7076,3.7089,3.7008,3.6988,3.7011,3.6941,3.6947,3.6892,3.6893,3.6887,3.68,3.6783,3.6703,3.6667,3.6625,3.666,3.6628,3.6678,3.6666,3.6722,3.6718,3.6919,3.694,3.6725,3.6727,3.6729,0,3.7249,3.7267,3.7189,3.7182,3.7152,3.7143,3.7127,3.7038,3.7026,3.697,3.6983,3.6959,3.6935,3.6912,3.6845,3.6817,3.6782,3.6854,3.6777,3.68,3.6781,3.678,3.6781,3.687,3.6873,3.6875,3.6877,0,3.7431,3.7393,3.7375,3.7344,3.7329,3.73,3.7266,3.7266,3.7167,3.7158,3.714,3.7121,3.7085,3.7062,3.7023,3.6985,3.6915,3.6903,3.6913,3.6937,3.6965,3.6949,3.6721,3.6898,3.6896,3.6894,3.6893,3.6892,3.7574,3.7585,3.7531,3.7514,3.7479,3.745,3.7451,3.7397,3.738,3.7344,3.7293,3.7282,3.723,3.717,3.7138,3.7127,3.7087,3.7102,3.7106,3.7111,3.7122,3.6968,3.712,3.7119,3.7118,3.7118,3.7117,0,3.7749,3.771,3.7695,3.765,3.7637,3.7574,3.7533,3.7525,3.7517,3.7475,3.7453,3.7433,3.741,3.7341,3.7311,3.7316,3.7283,3.7311,3.7308,3.7301,3.716,3.7154,3.7338,3.7338,3.7338,3.7338,3.7338,3.7338,3.7838,3.7853,3.7809,3.7806,3.7766,3.7755,3.7737,3.7709,3.7674,3.7656,3.7637,3.7593,3.7539,3.7505,3.7481,3.7461,3.7453,3.7492,3.7462,3.7332,3.7311,3.729,3.7284,3.7492,3.7492,3.7602,3.7603,3.7604]}]]